• In Denmark
  • List of Countries
  • For 7 days
  • Water Temperature
  • Satellite Maps
  • Weather Map
  • Weather Widgets
  • user-avatar
    Login

    Hourly Weather Al-Jahra

    Today, 22 June, Friday

    Time Temperature Precipitation Wind Pressure Humidity
    00:00 +38°C° 0 mm 6 mps 747 mmHg 16%
    01:00 +38°C° 0 mm 6 mps 747 mmHg 17%
    02:00 +36°C° 0 mm 6 mps 747 mmHg 18%
    03:00 +35°C° 0 mm 6 mps 746 mmHg 18%
    04:00 +35°C° 0 mm 6 mps 747 mmHg 18%
    05:00 +35°C° 0 mm 7 mps 747 mmHg 18%
    06:00 +35°C° 0 mm 7 mps 747 mmHg 19%
    07:00 +37°C° 0 mm 8 mps 747 mmHg 17%
    08:00 +39°C° 0 mm 9 mps 747 mmHg 14%
    09:00 +42°C° 0 mm 11 mps 747 mmHg 12%
    10:00 +44°C° 0 mm 11 mps 747 mmHg 11%
    11:00 +45°C° 0 mm 10 mps 747 mmHg 10%
    12:00 +47°C° 0 mm 10 mps 747 mmHg 10%
    13:00 +48°C° 0 mm 10 mps 746 mmHg 9%
    14:00 +48°C° 0 mm 10 mps 746 mmHg 9%
    15:00 +49°C° 0 mm 10 mps 745 mmHg 8%
    16:00 +48°C° 0 mm 10 mps 745 mmHg 9%
    17:00 +47°C° 0 mm 10 mps 745 mmHg 9%
    18:00 +47°C° 0 mm 9 mps 745 mmHg 10%
    19:00 +45°C° 0 mm 9 mps 745 mmHg 11%
    20:00 +43°C° 0 mm 8 mps 745 mmHg 13%
    21:00 +41°C° 0 mm 8 mps 745 mmHg 14%
    22:00 +40°C° 0 mm 7 mps 745 mmHg 15%
    23:00 +40°C° 0 mm 7 mps 745 mmHg 16%

    Tomorrow, 23 June, Saturday

    Time Temperature Precipitation Wind Pressure Humidity
    00:00 +39°C° 0 mm 7 mps 746 mmHg 17%
    01:00 +38°C° 0 mm 7 mps 746 mmHg 18%
    02:00 +38°C° 0 mm 7 mps 746 mmHg 19%
    03:00 +36°C° 0 mm 6 mps 746 mmHg 21%
    04:00 +36°C° 0 mm 6 mps 746 mmHg 21%
    05:00 +35°C° 0 mm 7 mps 746 mmHg 22%
    06:00 +35°C° 0 mm 7 mps 746 mmHg 23%
    07:00 +38°C° 0 mm 8 mps 746 mmHg 20%
    08:00 +39°C° 0 mm 9 mps 747 mmHg 17%
    09:00 +42°C° 0 mm 10 mps 747 mmHg 14%
    10:00 +43°C° 0 mm 10 mps 747 mmHg 13%
    11:00 +45°C° 0 mm 10 mps 746 mmHg 12%
    12:00 +47°C° 0 mm 10 mps 746 mmHg 11%
    13:00 +47°C° 0 mm 10 mps 746 mmHg 11%
    14:00 +48°C° 0 mm 10 mps 745 mmHg 10%
    15:00 +48°C° 0 mm 10 mps 745 mmHg 10%
    16:00 +47°C° 0 mm 9 mps 744 mmHg 10%
    17:00 +47°C° 0 mm 9 mps 744 mmHg 10%
    18:00 +45°C° 0 mm 9 mps 744 mmHg 11%
    19:00 +44°C° 0 mm 8 mps 744 mmHg 12%
    20:00 +43°C° 0 mm 7 mps 745 mmHg 12%
    21:00 +41°C° 0 mm 6 mps 745 mmHg 13%
    22:00 +40°C° 0 mm 6 mps 745 mmHg 14%
    23:00 +39°C° 0 mm 5 mps 745 mmHg 14%

    Day after tomorrow, 24 June, Sunday

    Time Temperature Precipitation Wind Pressure Humidity
    00:00 +37°C° 0 mm 5 mps 745 mmHg 15%
    01:00 +37°C° 0 mm 5 mps 745 mmHg 15%
    02:00 +36°C° 0 mm 5 mps 745 mmHg 15%
    03:00 +35°C° 0 mm 5 mps 745 mmHg 16%
    04:00 +35°C° 0 mm 5 mps 745 mmHg 16%
    05:00 +35°C° 0 mm 5 mps 745 mmHg 16%
    06:00 +35°C° 0 mm 5 mps 745 mmHg 16%
    07:00 +38°C° 0 mm 6 mps 746 mmHg 15%
    08:00 +40°C° 0 mm 6 mps 746 mmHg 14%
    09:00 +43°C° 0 mm 7 mps 746 mmHg 13%
    10:00 +44°C° 0 mm 7 mps 746 mmHg 12%
    11:00 +45°C° 0 mm 6 mps 746 mmHg 10%
    12:00 +46°C° 0 mm 6 mps 745 mmHg 9%
    13:00 +47°C° 0 mm 6 mps 745 mmHg 9%
    14:00 +48°C° 0 mm 6 mps 745 mmHg 8%
    15:00 +48°C° 0 mm 5 mps 744 mmHg 8%
    16:00 +48°C° 0 mm 5 mps 744 mmHg 8%
    17:00 +48°C° 0 mm 5 mps 744 mmHg 8%
    18:00 +47°C° 0 mm 5 mps 744 mmHg 8%
    19:00 +46°C° 0 mm 5 mps 744 mmHg 9%
    20:00 +45°C° 0 mm 5 mps 744 mmHg 10%
    21:00 +42°C° 0 mm 5 mps 745 mmHg 11%
    22:00 +42°C° 0 mm 5 mps 744 mmHg 12%
    23:00 +41°C° 0 mm 6 mps 744 mmHg 13%

    25 June, Monday

    Time Temperature Precipitation Wind Pressure Humidity
    00:00 +40°C° 0 mm 7 mps 744 mmHg 14%
    01:00 +40°C° 0 mm 7 mps 744 mmHg 14%
    02:00 +39°C° 0 mm 6 mps 744 mmHg 14%
    03:00 +39°C° 0 mm 6 mps 744 mmHg 15%
    04:00 +39°C° 0 mm 6 mps 744 mmHg 15%
    05:00 +38°C° 0 mm 6 mps 745 mmHg 16%
    06:00 +38°C° 0 mm 6 mps 745 mmHg 16%
    07:00 +40°C° 0 mm 6 mps 745 mmHg 15%
    08:00 +42°C° 0 mm 6 mps 746 mmHg 13%
    09:00 +45°C° 0 mm 7 mps 746 mmHg 12%
    10:00 +47°C° 0 mm 6 mps 745 mmHg 11%
    11:00 +48°C° 0 mm 6 mps 745 mmHg 10%
    12:00 +49°C° 0 mm 6 mps 745 mmHg 8%
    13:00 +51°C° 0 mm 6 mps 744 mmHg 8%
    14:00 +51°C° 0 mm 6 mps 744 mmHg 7%
    15:00 +52°C° 0 mm 6 mps 743 mmHg 6%
    16:00 +50°C° 0 mm 5 mps 743 mmHg 6%
    17:00 +50°C° 0 mm 5 mps 743 mmHg 7%
    18:00 +50°C° 0 mm 5 mps 743 mmHg 7%
    19:00 +48°C° 0 mm 6 mps 743 mmHg 8%
    20:00 +47°C° 0 mm 6 mps 743 mmHg 9%
    21:00 +46°C° 0 mm 6 mps 743 mmHg 9%
    22:00 +45°C° 0 mm 7 mps 743 mmHg 10%
    23:00 +44°C° 0 mm 7 mps 743 mmHg 10%

    26 June, Tuesday

    Time Temperature Precipitation Wind Pressure Humidity
    00:00 +43°C° 0 mm 8 mps 743 mmHg 11%
    01:00 +43°C° 0 mm 8 mps 743 mmHg 11%
    02:00 +41°C° 0 mm 8 mps 743 mmHg 12%
    03:00 +40°C° 0 mm 8 mps 743 mmHg 12%
    04:00 +40°C° 0 mm 8 mps 743 mmHg 13%
    05:00 +39°C° 0 mm 8 mps 743 mmHg 14%
    06:00 +39°C° 0 mm 8 mps 744 mmHg 14%
    07:00 +41°C° 0 mm 8 mps 744 mmHg 12%
    08:00 +44°C° 0 mm 9 mps 744 mmHg 10%
    09:00 +47°C° 0 mm 9 mps 744 mmHg 8%
    10:00 +49°C° 0 mm 9 mps 744 mmHg 7%
    11:00 +51°C° 0 mm 9 mps 743 mmHg 6%
    12:00 +53°C° 0 mm 9 mps 743 mmHg 5%
    13:00 +54°C° 0 mm 8 mps 742 mmHg 4%
    14:00 +55°C° 0 mm 8 mps 742 mmHg 4%
    15:00 +55°C° 0 mm 8 mps 741 mmHg 3%
    16:00 +55°C° 0 mm 8 mps 741 mmHg 4%
    17:00 +54°C° 0 mm 8 mps 741 mmHg 4%
    18:00 +52°C° 0 mm 8 mps 741 mmHg 4%
    19:00 +51°C° 0 mm 7 mps 741 mmHg 5%
    20:00 +49°C° 0 mm 7 mps 742 mmHg 6%
    21:00 +46°C° 0 mm 7 mps 742 mmHg 6%
    22:00 +46°C° 0 mm 8 mps 742 mmHg 7%
    23:00 +45°C° 0 mm 8 mps 742 mmHg 8%

    27 June, Wednesday

    Time Temperature Precipitation Wind Pressure Humidity
    00:00 +44°C° 0 mm 9 mps 742 mmHg 9%
    01:00 +43°C° 0 mm 8 mps 742 mmHg 9%
    02:00 +41°C° 0 mm 8 mps 742 mmHg 10%
    03:00 +41°C° 0 mm 8 mps 742 mmHg 10%
    04:00 +40°C° 0 mm 8 mps 742 mmHg 11%
    05:00 +40°C° 0 mm 7 mps 742 mmHg 12%
    06:00 +39°C° 0 mm 7 mps 743 mmHg 14%
    07:00 +43°C° 0 mm 7 mps 743 mmHg 11%
    08:00 +45°C° 0 mm 8 mps 743 mmHg 9%
    09:00 +48°C° 0 mm 8 mps 743 mmHg 7%
    10:00 +50°C° 0 mm 8 mps 743 mmHg 6%
    11:00 +51°C° 0 mm 9 mps 743 mmHg 5%
    12:00 +54°C° 0 mm 9 mps 742 mmHg 4%
    13:00 +54°C° 0 mm 9 mps 742 mmHg 4%
    14:00 +55°C° 0 mm 9 mps 741 mmHg 3%
    15:00 +56°C° 0 mm 9 mps 741 mmHg 3%
    16:00 +55°C° 0 mm 8 mps 741 mmHg 3%
    17:00 +54°C° 0 mm 8 mps 741 mmHg 3%
    18:00 +53°C° 0 mm 7 mps 741 mmHg 3%
    19:00 +51°C° 0 mm 7 mps 741 mmHg 4%
    20:00 +50°C° 0 mm 7 mps 741 mmHg 5%
    21:00 +47°C° 0 mm 6 mps 742 mmHg 5%
    22:00 +46°C° 0 mm 7 mps 742 mmHg 7%
    23:00 +46°C° 0 mm 8 mps 742 mmHg 8%
    Show more